| time (UTC) | temp F | wind direction | speed MPH | gust MPH | rain 1hr in | rain 24hr in | rain mn in | humidity % | barometer mb |
| 20260902095508 | 80 | 137 | 1.0 | 3.0 | 0.00 | 0.00 | 0.00 | 50 | 1020.2 |
| 20260902094508 | 79 | 103 | 1.0 | 5.0 | 0.00 | 0.00 | 0.00 | 52 | 1020.2 |
| 20260902094008 | 79 | 191 | 3.0 | 6.0 | 0.00 | 0.00 | 0.00 | 53 | 1020.2 |
| 20260902093508 | 78 | 193 | 2.0 | 5.0 | 0.00 | 0.00 | 0.00 | 55 | 1020.2 |
| 20260902093008 | 78 | 169 | 2.0 | 5.0 | 0.00 | 0.00 | 0.00 | 55 | 1020.1 |
| 20260902092509 | 78 | 162 | 3.0 | 6.0 | 0.00 | 0.00 | 0.00 | 56 | 1020.1 |
| 20260902092008 | 78 | 190 | 3.0 | 5.0 | 0.00 | 0.00 | 0.00 | 57 | 1020.1 |
| 20260902091008 | 77 | 189 | 2.0 | 6.0 | 0.00 | 0.00 | 0.00 | 56 | 1020.0 |
| 20260902090508 | 77 | 204 | 2.0 | 7.0 | 0.00 | 0.00 | 0.00 | 56 | 1020.0 |
| 20260902090008 | 76 | 177 | 2.0 | 7.0 | 0.00 | 0.00 | 0.00 | 56 | 1020.0 |
| 20260902085507 | 76 | 213 | 3.0 | 6.0 | 0.00 | 0.00 | 0.00 | 56 | 1020.0 |
| 20260902084008 | 76 | 188 | 1.0 | 3.0 | 0.00 | 0.00 | 0.00 | 53 | 1020.0 |
| 20260902083508 | 76 | 195 | 2.0 | 3.0 | 0.00 | 0.00 | 0.00 | 54 | 1019.9 |
| 20260902083009 | 76 | 182 | 0.0 | 0.0 | 0.00 | 0.00 | 0.00 | 54 | 1019.8 |
| 20260902082008 | 75 | 75 | 0.0 | 2.0 | 0.00 | 0.00 | 0.00 | 54 | 1019.8 |
| 20260902081508 | 74 | 75 | 1.0 | 3.0 | 0.00 | 0.00 | 0.00 | 54 | 1019.8 |
| 20260902081008 | 73 | 75 | 1.0 | 3.0 | 0.00 | 0.00 | 0.00 | 54 | 1019.7 |
| 20260902080508 | 73 | 31 | 2.0 | 3.0 | 0.00 | 0.00 | 0.00 | 55 | 1019.7 |
| 20260902080011 | 72 | 343 | 1.0 | 3.0 | 0.00 | 0.00 | 0.00 | 54 | 1019.6 |
| 20260902075507 | 72 | 5 | 2.0 | 3.0 | 0.00 | 0.00 | 0.00 | 54 | 1019.6 |
| 20260902075008 | 71 | 5 | 2.0 | 3.0 | 0.00 | 0.00 | 0.00 | 53 | 1019.4 |
| 20260902074508 | 71 | 20 | 1.0 | 2.0 | 0.00 | 0.00 | 0.00 | 53 | 1019.5 |
| 20260902073508 | 71 | 59 | 0.0 | 0.0 | 0.00 | 0.00 | 0.00 | 52 | 1019.5 |
| 20260902073008 | 71 | 59 | 0.0 | 0.0 | 0.00 | 0.00 | 0.00 | 52 | 1019.5 |
| 20260902071508 | 70 | 22 | 0.0 | 0.0 | 0.00 | 0.00 | 0.00 | 53 | 1019.5 |
| 20260902071008 | 69 | 22 | 0.0 | 0.0 | 0.00 | 0.00 | 0.00 | 54 | 1019.4 |
| 20260902070508 | 68 | 22 | 0.0 | 0.0 | 0.00 | 0.00 | 0.00 | 55 | 1019.2 |
| 20260902070009 | 67 | 22 | 0.0 | 0.0 | 0.00 | 0.00 | 0.00 | 56 | 1019.2 |
| 20260902065508 | 66 | 22 | 0.0 | 3.0 | 0.00 | 0.00 | 0.00 | 58 | 1019.1 |
| 20260902065008 | 66 | 22 | 2.0 | 3.0 | 0.00 | 0.00 | 0.00 | 58 | 1019.0 |
| 20260902064508 | 65 | 22 | 2.0 | 3.0 | 0.00 | 0.00 | 0.00 | 58 | 1019.0 |
| 20260902063508 | 64 | 22 | 0.0 | 0.0 | 0.00 | 0.00 | 0.00 | 59 | 1018.9 |
| 20260902063007 | 63 | 22 | 0.0 | 0.0 | 0.00 | 0.00 | 0.00 | 59 | 1019.0 |
| 20260902062508 | 62 | 22 | 0.0 | 0.0 | 0.00 | 0.00 | 0.00 | 61 | 1018.9 |
| 20260902062008 | 62 | 22 | 0.0 | 0.0 | 0.00 | 0.00 | 0.00 | 57 | 1018.9 |
| 20260902061509 | 63 | 22 | 0.0 | 0.0 | 0.00 | 0.00 | 0.00 | 56 | 1018.9 |
| 20260902061008 | 63 | 22 | 0.0 | 0.0 | 0.00 | 0.00 | 0.00 | 55 | 1018.9 |
| 20260902060508 | 64 | 22 | 0.0 | 0.0 | 0.00 | 0.00 | 0.00 | 54 | 1018.9 |
| 20260902060008 | 65 | 22 | 0.0 | 0.0 | 0.00 | 0.00 | 0.00 | 55 | 1018.9 |
| 20260902055508 | 65 | 22 | 0.0 | 0.0 | 0.00 | 0.00 | 0.00 | 55 | 1018.8 |
| 20260902055008 | 64 | 22 | 0.0 | 0.0 | 0.00 | 0.00 | 0.00 | 56 | 1018.8 |
| 20260902054007 | 64 | 22 | 0.0 | 0.0 | 0.00 | 0.00 | 0.00 | 55 | 1018.6 |
| 20260902053508 | 64 | 22 | 0.0 | 0.0 | 0.00 | 0.00 | 0.00 | 54 | 1018.4 |
| 20260902053008 | 65 | 22 | 0.0 | 0.0 | 0.00 | 0.00 | 0.00 | 54 | 1018.4 |
| 20260902052508 | 65 | 22 | 0.0 | 2.0 | 0.00 | 0.00 | 0.00 | 55 | 1018.4 |
| 20260902052008 | 65 | 17 | 3.0 | 3.0 | 0.00 | 0.00 | 0.00 | 54 | 1018.3 |
| 20260902051508 | 65 | 12 | 3.0 | 3.0 | 0.00 | 0.00 | 0.00 | 54 | 1018.3 |
| 20260902051008 | 65 | 24 | 3.0 | 3.0 | 0.00 | 0.00 | 0.00 | 54 | 1018.3 |
| 20260902050508 | 65 | 24 | 3.0 | 3.0 | 0.00 | 0.00 | 0.00 | 53 | 1018.2 |
| 20260902050009 | 65 | 24 | 1.0 | 2.0 | 0.00 | 0.00 | 0.00 | 52 | 1018.1 |
| 20260902045508 | 65 | 24 | 1.0 | 2.0 | 0.00 | 0.00 | 0.00 | 52 | 1018.1 |
| 20260902044508 | 65 | 24 | 2.0 | 3.0 | 0.00 | 0.00 | 0.00 | 53 | 1018.1 |
| 20260902044008 | 65 | 18 | 3.0 | 5.0 | 0.00 | 0.00 | 0.00 | 52 | 1017.9 |
| 20260902043508 | 65 | 10 | 4.0 | 6.0 | 0.00 | 0.00 | 0.00 | 51 | 1017.9 |
| 20260902043008 | 65 | 8 | 5.0 | 7.0 | 0.00 | 0.00 | 0.00 | 51 | 1017.9 |
| 20260902042507 | 65 | 2 | 3.0 | 5.0 | 0.00 | 0.00 | 0.00 | 50 | 1017.8 |
| 20260902041007 | 65 | 13 | 2.0 | 3.0 | 0.00 | 0.00 | 0.00 | 49 | 1017.8 |
| 20260902040507 | 65 | 13 | 2.0 | 3.0 | 0.00 | 0.00 | 0.00 | 49 | 1017.8 |
| 20260902040008 | 65 | 13 | 2.0 | 3.0 | 0.00 | 0.00 | 0.00 | 49 | 1017.9 |
| 20260902035507 | 65 | 11 | 3.0 | 5.0 | 0.00 | 0.00 | 0.00 | 47 | 1017.9 |
| 20260902035008 | 65 | 11 | 3.0 | 5.0 | 0.00 | 0.00 | 0.00 | 47 | 1018.0 |
| 20260902034507 | 65 | 11 | 3.0 | 5.0 | 0.00 | 0.00 | 0.00 | 46 | 1017.9 |
| 20260902034008 | 65 | 11 | 3.0 | 5.0 | 0.00 | 0.00 | 0.00 | 46 | 1017.9 |
| 20260902033508 | 65 | 11 | 2.0 | 5.0 | 0.00 | 0.00 | 0.00 | 44 | 1017.9 |
| 20260902033008 | 66 | 11 | 3.0 | 5.0 | 0.00 | 0.00 | 0.00 | 44 | 1017.9 |
| 20260902032508 | 66 | 11 | 3.0 | 3.0 | 0.00 | 0.00 | 0.00 | 44 | 1017.9 |
| 20260902032008 | 66 | 11 | 0.0 | 0.0 | 0.00 | 0.00 | 0.00 | 43 | 1018.0 |
| 20260902031007 | 67 | 11 | 0.0 | 0.0 | 0.00 | 0.00 | 0.00 | 42 | 1018.0 |
| 20260902030508 | 67 | 11 | 1.0 | 2.0 | 0.00 | 0.00 | 0.00 | 41 | 1017.9 |
| 20260902030008 | 68 | 11 | 1.0 | 2.0 | 0.00 | 0.00 | 0.00 | 41 | 1017.9 |
| 20260902025507 | 68 | 11 | 2.0 | 3.0 | 0.00 | 0.00 | 0.00 | 40 | 1017.9 |
| 20260902025008 | 68 | 11 | 3.0 | 3.0 | 0.00 | 0.00 | 0.00 | 41 | 1017.8 |
| 20260902024507 | 67 | 11 | 3.0 | 3.0 | 0.00 | 0.00 | 0.00 | 41 | 1017.7 |
| 20260902024008 | 67 | 11 | 3.0 | 3.0 | 0.00 | 0.00 | 0.00 | 41 | 1017.7 |
| 20260902023508 | 67 | 11 | 0.0 | 0.0 | 0.00 | 0.00 | 0.00 | 39 | 1017.7 |
| 20260902022507 | 67 | 11 | 0.0 | 0.0 | 0.00 | 0.00 | 0.00 | 38 | 1017.5 |
| 20260902021507 | 68 | 11 | 0.0 | 3.0 | 0.00 | 0.00 | 0.00 | 38 | 1017.6 |
| 20260902021008 | 68 | 11 | 1.0 | 3.0 | 0.00 | 0.00 | 0.00 | 37 | 1017.7 |
| 20260902020508 | 68 | 11 | 3.0 | 5.0 | 0.00 | 0.00 | 0.00 | 37 | 1017.5 |
| 20260902020008 | 67 | 19 | 3.0 | 5.0 | 0.00 | 0.00 | 0.00 | 37 | 1017.6 |
| 20260902015507 | 67 | 16 | 3.0 | 5.0 | 0.00 | 0.00 | 0.00 | 37 | 1017.6 |
| 20260902015008 | 67 | 20 | 2.0 | 5.0 | 0.00 | 0.00 | 0.00 | 37 | 1017.6 |
| 20260902014507 | 67 | 23 | 3.0 | 5.0 | 0.00 | 0.00 | 0.00 | 35 | 1017.5 |
| 20260902014008 | 68 | 12 | 2.0 | 3.0 | 0.00 | 0.00 | 0.00 | 36 | 1017.4 |
| 20260902013008 | 68 | 19 | 3.0 | 3.0 | 0.00 | 0.00 | 0.00 | 36 | 1017.5 |
| 20260902012508 | 68 | 24 | 3.0 | 5.0 | 0.00 | 0.00 | 0.00 | 35 | 1017.6 |
| 20260902011508 | 69 | 14 | 5.0 | 7.0 | 0.00 | 0.00 | 0.00 | 33 | 1017.5 |
| 20260902011007 | 69 | 25 | 3.0 | 5.0 | 0.00 | 0.00 | 0.00 | 33 | 1017.5 |
| 20260902010507 | 68 | 19 | 5.0 | 7.0 | 0.00 | 0.00 | 0.00 | 33 | 1017.4 |
| 20260902005519 | 69 | 15 | 2.0 | 3.0 | 0.00 | 0.00 | 0.00 | 32 | 1017.4 |
| 20260902005018 | 70 | 15 | 0.0 | 0.0 | 0.00 | 0.00 | 0.00 | 33 | 1017.4 |
| 20260902004508 | 70 | 15 | 0.0 | 0.0 | 0.00 | 0.00 | 0.00 | 32 | 1017.4 |
| 20260902003518 | 71 | 15 | 0.0 | 2.0 | 0.00 | 0.00 | 0.00 | 31 | 1017.4 |
| 20260902003008 | 72 | 15 | 1.0 | 3.0 | 0.00 | 0.00 | 0.00 | 31 | 1017.5 |
| 20260902002507 | 72 | 15 | 3.0 | 3.0 | 0.00 | 0.00 | 0.00 | 30 | 1017.5 |
| 20260902002018 | 72 | 15 | 2.0 | 3.0 | 0.00 | 0.00 | 0.00 | 30 | 1017.4 |
| 20260902001519 | 72 | 15 | 2.0 | 3.0 | 0.00 | 0.00 | 0.00 | 30 | 1017.5 |
| 20260902001018 | 71 | 7 | 3.0 | 3.0 | 0.00 | 0.00 | 0.00 | 31 | 1017.5 |
| 20260902000519 | 71 | 351 | 2.0 | 3.0 | 0.00 | 0.00 | 0.00 | 31 | 1017.6 |
| 20260902000019 | 71 | 351 | 2.0 | 3.0 | 0.00 | 0.00 | 0.00 | 31 | 1017.7 |
| 20260901235511 | 73 | 17 | 4.0 | 5.0 | 0.00 | 0.00 | 0.00 | 30 | 1017.7 |
| 20260901235018 | 73 | 19 | 4.0 | 5.0 | 0.00 | 0.00 | 0.00 | 30 | 1017.8 |
| 20260901234518 | 71 | 355 | 3.0 | 3.0 | 0.00 | 0.00 | 0.00 | 31 | 1017.9 |
| 20260901233519 | 70 | 18 | 5.0 | 6.0 | 0.00 | 0.00 | 0.00 | 32 | 1017.8 |
| 20260901232018 | 72 | 18 | 5.0 | 7.0 | 0.00 | 0.00 | 0.00 | 30 | 1017.8 |
| 20260901231508 | 73 | 28 | 0.0 | 0.0 | 0.00 | 0.00 | 0.00 | 30 | 1017.8 |
| 20260901231018 | 73 | 125 | 0.0 | 0.0 | 0.00 | 0.00 | 0.00 | 30 | 1017.8 |
| 20260901230518 | 74 | 125 | 0.0 | 3.0 | 0.00 | 0.00 | 0.00 | 30 | 1017.7 |
| 20260901230019 | 73 | 116 | 2.0 | 3.0 | 0.00 | 0.00 | 0.00 | 30 | 1017.7 |
| 20260901225518 | 73 | 84 | 2.0 | 3.0 | 0.00 | 0.00 | 0.00 | 31 | 1017.6 |
| 20260901225019 | 73 | 37 | 1.0 | 3.0 | 0.00 | 0.00 | 0.00 | 30 | 1017.3 |
| 20260901224520 | 73 | 37 | 0.0 | 0.0 | 0.00 | 0.00 | 0.00 | 30 | 1017.2 |
| 20260901224018 | 73 | 37 | 0.0 | 0.0 | 0.00 | 0.00 | 0.00 | 30 | 1017.1 |
| 20260901223522 | 73 | 37 | 0.0 | 1.0 | 0.00 | 0.00 | 0.00 | 30 | 1017.1 |
| 20260901223019 | 74 | 37 | 1.0 | 2.0 | 0.00 | 0.00 | 0.00 | 30 | 1017.0 |
| 20260901222518 | 74 | 37 | 2.0 | 3.0 | 0.00 | 0.00 | 0.00 | 29 | 1017.1 |
| 20260901222018 | 75 | 66 | 0.0 | 0.0 | 0.00 | 0.00 | 0.00 | 29 | 1017.0 |
| 20260901221519 | 75 | 66 | 1.0 | 2.0 | 0.00 | 0.00 | 0.00 | 28 | 1017.1 |
| 20260901221018 | 75 | 66 | 1.0 | 3.0 | 0.00 | 0.00 | 0.00 | 28 | 1017.0 |
| 20260901220019 | 75 | 101 | 2.0 | 5.0 | 0.00 | 0.00 | 0.00 | 29 | 1016.9 |
| 20260901215518 | 75 | 43 | 2.0 | 5.0 | 0.00 | 0.00 | 0.00 | 28 | 1016.9 |
| 20260901215018 | 76 | 306 | 0.0 | 2.0 | 0.00 | 0.00 | 0.00 | 27 | 1016.9 |
| 20260901214518 | 76 | 308 | 0.0 | 2.0 | 0.00 | 0.00 | 0.00 | 27 | 1016.8 |
| 20260901214018 | 77 | 311 | 2.0 | 6.0 | 0.00 | 0.00 | 0.00 | 26 | 1016.7 |
| 20260901213519 | 78 | 307 | 5.0 | 8.0 | 0.00 | 0.00 | 0.00 | 25 | 1016.8 |
| 20260901213007 | 79 | 313 | 6.0 | 8.0 | 0.00 | 0.00 | 0.00 | 25 | 1016.7 |
| 20260901212518 | 79 | 316 | 6.0 | 8.0 | 0.00 | 0.00 | 0.00 | 24 | 1016.6 |
| 20260901212018 | 79 | 316 | 6.0 | 8.0 | 0.00 | 0.00 | 0.00 | 25 | 1016.6 |
| 20260901211007 | 79 | 309 | 6.0 | 8.0 | 0.00 | 0.00 | 0.00 | 25 | 1016.6 |
| 20260901210518 | 79 | 307 | 5.0 | 7.0 | 0.00 | 0.00 | 0.00 | 24 | 1016.5 |
| 20260901210018 | 79 | 307 | 5.0 | 7.0 | 0.00 | 0.00 | 0.00 | 24 | 1016.5 |
| 20260901205518 | 79 | 310 | 5.0 | 8.0 | 0.00 | 0.00 | 0.00 | 24 | 1016.5 |
| 20260901205018 | 79 | 312 | 6.0 | 8.0 | 0.00 | 0.00 | 0.00 | 24 | 1016.4 |
| 20260901204518 | 78 | 310 | 5.0 | 8.0 | 0.00 | 0.00 | 0.00 | 25 | 1016.3 |
| 20260901204018 | 79 | 303 | 6.0 | 9.0 | 0.00 | 0.00 | 0.00 | 24 | 1016.3 |
| 20260901203518 | 79 | 310 | 7.0 | 9.0 | 0.00 | 0.00 | 0.00 | 24 | 1016.3 |
| 20260901203018 | 80 | 310 | 7.0 | 9.0 | 0.00 | 0.00 | 0.00 | 23 | 1016.0 |
| 20260901202518 | 81 | 309 | 7.0 | 9.0 | 0.00 | 0.00 | 0.00 | 23 | 1016.0 |
| 20260901202018 | 81 | 310 | 8.0 | 9.0 | 0.00 | 0.00 | 0.00 | 23 | 1015.9 |
| 20260901201518 | 81 | 314 | 8.0 | 10.0 | 0.00 | 0.00 | 0.00 | 23 | 1015.8 |
| 20260901201018 | 81 | 311 | 8.0 | 9.0 | 0.00 | 0.00 | 0.00 | 23 | 1015.6 |
| 20260901200519 | 81 | 311 | 8.0 | 10.0 | 0.00 | 0.00 | 0.00 | 23 | 1015.6 |
| 20260901200018 | 81 | 316 | 8.0 | 10.0 | 0.00 | 0.00 | 0.00 | 23 | 1015.6 |
| 20260901195017 | 82 | 315 | 7.0 | 8.0 | 0.00 | 0.00 | 0.00 | 22 | 1015.6 |
| 20260901194507 | 81 | 317 | 7.0 | 9.0 | 0.00 | 0.00 | 0.00 | 23 | 1015.4 |
| 20260901194007 | 81 | 312 | 8.0 | 9.0 | 0.00 | 0.00 | 0.00 | 23 | 1015.4 |
| 20260901193507 | 82 | 312 | 6.0 | 8.0 | 0.00 | 0.00 | 0.00 | 23 | 1015.3 |
| 20260901193018 | 82 | 313 | 6.0 | 8.0 | 0.00 | 0.00 | 0.00 | 23 | 1015.3 |
| 20260901192518 | 82 | 313 | 6.0 | 8.0 | 0.00 | 0.00 | 0.00 | 23 | 1015.1 |
| 20260901192018 | 82 | 310 | 7.0 | 9.0 | 0.00 | 0.00 | 0.00 | 23 | 1015.1 |
| 20260901191518 | 82 | 314 | 7.0 | 9.0 | 0.00 | 0.00 | 0.00 | 23 | 1015.0 |
| 20260901191018 | 82 | 311 | 6.0 | 9.0 | 0.00 | 0.00 | 0.00 | 23 | 1015.0 |
| 20260901190518 | 83 | 305 | 6.0 | 8.0 | 0.00 | 0.00 | 0.00 | 22 | 1015.0 |
| 20260901190018 | 84 | 300 | 6.0 | 10.0 | 0.00 | 0.00 | 0.00 | 22 | 1014.9 |
| 20260901185017 | 85 | 299 | 3.0 | 5.0 | 0.00 | 0.00 | 0.00 | 22 | 1014.8 |
| 20260901184018 | 87 | 299 | 4.0 | 9.0 | 0.00 | 0.00 | 0.00 | 21 | 1014.8 |
| 20260901183518 | 87 | 289 | 6.0 | 8.0 | 0.00 | 0.00 | 0.00 | 21 | 1014.8 |
| 20260901183018 | 88 | 300 | 5.0 | 9.0 | 0.00 | 0.00 | 0.00 | 21 | 1014.8 |
| 20260901182506 | 88 | 300 | 6.0 | 9.0 | 0.00 | 0.00 | 0.00 | 21 | 1014.8 |
| 20260901182007 | 88 | 288 | 6.0 | 10.0 | 0.00 | 0.00 | 0.00 | 21 | 1014.7 |
| 20260901181523 | 88 | 288 | 7.0 | 10.0 | 0.00 | 0.00 | 0.00 | 21 | 1014.7 |
| 20260901180514 | 89 | 261 | 6.0 | 12.0 | 0.00 | 0.00 | 0.00 | 21 | 1014.5 |
| 20260901180017 | 89 | 287 | 6.0 | 12.0 | 0.00 | 0.00 | 0.00 | 21 | 1014.5 |
| 20260901175517 | 89 | 278 | 5.0 | 9.0 | 0.00 | 0.00 | 0.00 | 20 | 1014.6 |
| 20260901175018 | 90 | 282 | 5.0 | 12.0 | 0.00 | 0.00 | 0.00 | 20 | 1014.6 |
| 20260901174518 | 90 | 286 | 7.0 | 13.0 | 0.00 | 0.00 | 0.00 | 20 | 1014.6 |
| 20260901173518 | 91 | 281 | 6.0 | 10.0 | 0.00 | 0.00 | 0.00 | 20 | 1014.6 |
| 20260901173007 | 91 | 275 | 3.0 | 12.0 | 0.00 | 0.00 | 0.00 | 20 | 1014.6 |
| 20260901172007 | 91 | 265 | 3.0 | 8.0 | 0.00 | 0.00 | 0.00 | 20 | 1014.5 |
| 20260901171507 | 90 | 238 | 5.0 | 12.0 | 0.00 | 0.00 | 0.00 | 20 | 1014.6 |
| 20260901170506 | 90 | 235 | 5.0 | 12.0 | 0.00 | 0.00 | 0.00 | 20 | 1014.6 |
| 20260901170018 | 91 | 273 | 3.0 | 7.0 | 0.00 | 0.00 | 0.00 | 20 | 1014.6 |
| 20260901165518 | 90 | 232 | 3.0 | 12.0 | 0.00 | 0.00 | 0.00 | 20 | 1014.6 |
| 20260901164518 | 91 | 227 | 6.0 | 14.0 | 0.00 | 0.00 | 0.00 | 20 | 1014.7 |
| 20260901164018 | 91 | 269 | 5.0 | 9.0 | 0.00 | 0.00 | 0.00 | 20 | 1014.5 |
| 20260901163518 | 91 | 210 | 7.0 | 12.0 | 0.00 | 0.00 | 0.00 | 21 | 1014.6 |
| 20260901163007 | 91 | 258 | 7.0 | 13.0 | 0.00 | 0.00 | 0.00 | 21 | 1014.6 |
| 20260901162518 | 91 | 253 | 5.0 | 12.0 | 0.00 | 0.00 | 0.00 | 20 | 1014.6 |
| 20260901162018 | 91 | 253 | 7.0 | 13.0 | 0.00 | 0.00 | 0.00 | 20 | 1014.6 |
| 20260901161517 | 91 | 243 | 6.0 | 12.0 | 0.00 | 0.00 | 0.00 | 20 | 1014.5 |
| 20260901161017 | 91 | 218 | 6.0 | 13.0 | 0.00 | 0.00 | 0.00 | 21 | 1014.5 |
| 20260901160507 | 91 | 232 | 8.0 | 14.0 | 0.00 | 0.00 | 0.00 | 20 | 1014.7 |
| 20260901160018 | 91 | 253 | 5.0 | 13.0 | 0.00 | 0.00 | 0.00 | 22 | 1014.6 |
| 20260901155517 | 91 | 285 | 9.0 | 16.0 | 0.00 | 0.00 | 0.00 | 21 | 1014.6 |
| 20260901155017 | 92 | 263 | 5.0 | 12.0 | 0.00 | 0.00 | 0.00 | 21 | 1014.7 |
| 20260901154517 | 91 | 257 | 5.0 | 13.0 | 0.00 | 0.00 | 0.00 | 21 | 1014.7 |
| 20260901154007 | 91 | 221 | 6.0 | 14.0 | 0.00 | 0.00 | 0.00 | 21 | 1014.7 |
| 20260901153518 | 91 | 240 | 9.0 | 14.0 | 0.00 | 0.00 | 0.00 | 21 | 1014.7 |
| 20260901153018 | 91 | 227 | 7.0 | 12.0 | 0.00 | 0.00 | 0.00 | 21 | 1014.8 |
| 20260901152518 | 90 | 219 | 6.0 | 10.0 | 0.00 | 0.00 | 0.00 | 23 | 1014.8 |
| 20260901151518 | 91 | 208 | 2.0 | 12.0 | 0.00 | 0.00 | 0.00 | 24 | 1014.8 |
| 20260901151017 | 91 | 210 | 4.0 | 9.0 | 0.00 | 0.00 | 0.00 | 23 | 1014.7 |
| 20260901150518 | 90 | 242 | 3.0 | 12.0 | 0.00 | 0.00 | 0.00 | 24 | 1014.7 |
| 20260901150007 | 90 | 188 | 9.0 | 17.0 | 0.00 | 0.00 | 0.00 | 24 | 1014.7 |
| 20260901145507 | 90 | 212 | 6.0 | 13.0 | 0.00 | 0.00 | 0.00 | 24 | 1014.6 |
| 20260901145007 | 90 | 260 | 6.0 | 13.0 | 0.00 | 0.00 | 0.00 | 24 | 1014.6 |
| 20260901144507 | 90 | 224 | 10.0 | 15.0 | 0.00 | 0.00 | 0.00 | 24 | 1014.6 |
| 20260901142518 | 89 | 191 | 10.0 | 14.0 | 0.00 | 0.00 | 0.00 | 25 | 1014.8 |
| 20260901142018 | 90 | 188 | 5.0 | 12.0 | 0.00 | 0.00 | 0.00 | 25 | 1014.9 |
| 20260901141017 | 90 | 260 | 7.0 | 14.0 | 0.00 | 0.00 | 0.00 | 24 | 1015.1 |
| 20260901140506 | 89 | 214 | 3.0 | 13.0 | 0.00 | 0.00 | 0.00 | 25 | 1015.1 |
| 20260901140018 | 89 | 210 | 7.0 | 21.0 | 0.00 | 0.00 | 0.00 | 27 | 1015.3 |
| 20260901135517 | 89 | 184 | 4.0 | 8.0 | 0.00 | 0.00 | 0.00 | 28 | 1015.1 |
| 20260901135017 | 88 | 234 | 5.0 | 9.0 | 0.00 | 0.00 | 0.00 | 28 | 1015.2 |
| 20260901134506 | 89 | 234 | 5.0 | 10.0 | 0.00 | 0.00 | 0.00 | 28 | 1015.2 |
| 20260901134017 | 89 | 239 | 5.0 | 12.0 | 0.00 | 0.00 | 0.00 | 29 | 1015.4 |
| 20260901133518 | 88 | 240 | 2.0 | 7.0 | 0.00 | 0.00 | 0.00 | 30 | 1015.3 |
| 20260901133018 | 87 | 235 | 3.0 | 13.0 | 0.00 | 0.00 | 0.00 | 30 | 1015.4 |
| 20260901132517 | 88 | 280 | 10.0 | 14.0 | 0.00 | 0.00 | 0.00 | 30 | 1015.4 |
| 20260901132017 | 88 | 256 | 5.0 | 12.0 | 0.00 | 0.00 | 0.00 | 30 | 1015.4 |
| 20260901131517 | 88 | 203 | 7.0 | 15.0 | 0.00 | 0.00 | 0.00 | 29 | 1015.5 |
| 20260901131017 | 87 | 161 | 4.0 | 7.0 | 0.00 | 0.00 | 0.00 | 30 | 1015.5 |
| 20260901130517 | 87 | 153 | 6.0 | 12.0 | 0.00 | 0.00 | 0.00 | 32 | 1015.7 |
| 20260901130017 | 87 | 196 | 7.0 | 12.0 | 0.00 | 0.00 | 0.00 | 31 | 1015.8 |
| 20260901125517 | 87 | 229 | 6.0 | 12.0 | 0.00 | 0.00 | 0.00 | 31 | 1015.9 |
| 20260901125017 | 87 | 232 | 7.0 | 13.0 | 0.00 | 0.00 | 0.00 | 29 | 1016.0 |
| 20260901124517 | 87 | 319 | 2.0 | 5.0 | 0.00 | 0.00 | 0.00 | 32 | 1015.9 |
| 20260901124017 | 87 | 238 | 3.0 | 10.0 | 0.00 | 0.00 | 0.00 | 31 | 1015.9 |
| 20260901123517 | 87 | 227 | 7.0 | 12.0 | 0.00 | 0.00 | 0.00 | 32 | 1016.0 |
| 20260901123007 | 86 | 234 | 3.0 | 10.0 | 0.00 | 0.00 | 0.00 | 34 | 1016.0 |
| 20260901122507 | 86 | 270 | 3.0 | 7.0 | 0.00 | 0.00 | 0.00 | 35 | 1015.9 |
| 20260901122017 | 86 | 247 | 2.0 | 6.0 | 0.00 | 0.00 | 0.00 | 35 | 1016.0 |
| 20260901121518 | 85 | 189 | 5.0 | 10.0 | 0.00 | 0.00 | 0.00 | 35 | 1016.2 |
| 20260901121018 | 85 | 174 | 4.0 | 10.0 | 0.00 | 0.00 | 0.00 | 35 | 1016.1 |
| 20260901120017 | 84 | 198 | 4.0 | 10.0 | 0.00 | 0.00 | 0.00 | 36 | 1016.1 |
| 20260901115506 | 84 | 282 | 1.0 | 6.0 | 0.00 | 0.00 | 0.00 | 38 | 1016.3 |
| 20260901115017 | 84 | 188 | 3.0 | 12.0 | 0.00 | 0.00 | 0.00 | 38 | 1016.3 |
| 20260901114517 | 84 | 126 | 2.0 | 6.0 | 0.00 | 0.00 | 0.00 | 40 | 1016.3 |
| 20260901114017 | 84 | 289 | 4.0 | 12.0 | 0.00 | 0.00 | 0.00 | 39 | 1016.3 |
| 20260901113517 | 83 | 237 | 1.0 | 3.0 | 0.00 | 0.00 | 0.00 | 42 | 1016.5 |
| 20260901113017 | 83 | 167 | 1.0 | 7.0 | 0.00 | 0.00 | 0.00 | 42 | 1016.5 |
| 20260901112517 | 83 | 214 | 3.0 | 9.0 | 0.00 | 0.00 | 0.00 | 43 | 1016.6 |
| 20260901112006 | 83 | 142 | 1.0 | 7.0 | 0.00 | 0.00 | 0.00 | 42 | 1016.5 |
| 20260901111517 | 82 | 136 | 3.0 | 6.0 | 0.00 | 0.00 | 0.00 | 42 | 1016.7 |
| 20260901110506 | 81 | 130 | 3.0 | 9.0 | 0.00 | 0.00 | 0.00 | 45 | 1016.8 |
| 20260901105017 | 81 | 162 | 3.0 | 9.0 | 0.00 | 0.00 | 0.00 | 47 | 1016.9 |
| 20260901104517 | 81 | 122 | 5.0 | 9.0 | 0.00 | 0.00 | 0.00 | 46 | 1016.9 |
| 20260901103518 | 80 | 130 | 3.0 | 8.0 | 0.00 | 0.00 | 0.00 | 49 | 1017.1 |
| 20260901103006 | 80 | 119 | 5.0 | 9.0 | 0.00 | 0.00 | 0.00 | 49 | 1017.1 |
| 20260901102517 | 79 | 208 | 1.0 | 5.0 | 0.00 | 0.00 | 0.00 | 50 | 1017.1 |
| 20260901101517 | 79 | 86 | 5.0 | 10.0 | 0.00 | 0.00 | 0.00 | 50 | 1017.1 |
| 20260901101006 | 79 | 77 | 1.0 | 3.0 | 0.00 | 0.00 | 0.00 | 51 | 1017.1 |
| 20260901100518 | 78 | 181 | 3.0 | 7.0 | 0.00 | 0.00 | 0.00 | 51 | 1017.2 |
| 20260901100019 | 78 | 110 | 4.0 | 9.0 | 0.00 | 0.00 | 0.00 | 51 | 1017.3 |